Temp
7 8 8 8 8 8 8 8 8 8 9 10 12 13 12 12 13 13 14 21 23 24 24 24 24 24 25 25 26 27 22 23 26 27 30 32 33 34 36 35 35 34 34 33 35
7 7 7 7 8 8 8 8 8 8 8 9 11 12 13 12 12 13 22 22 22 24 23 23 24 26 24 25 26 25 23 25 27 28 29 31 32 33 34 33 33 34 35 34 35
7 7 7 7 7 7 8 8 8 8 8 8 9 11 12 11 12 19 22 23 21 23 23 24 25 26 25 26 26 26 25 27 28 29 30 30 31 33 33 32 33 32 33 33 34
7 7 7 7 7 7 7 8 8 8 8 8 8 9 11 10 16 22 21 22 23 22 23 24 24 23 23 24 27 25 27 28 28 29 29 29 32 32 32 31 32 33 33 33 31
8 8 7 8 9 9 9 9 9 9 9 8 8 8 8 12 13 20 20 21 22 22 22 22 21 21 21 24 26 26 27 28 29 29 30 30 31 31 32 33 33 33 33 31 30
7 7 7 7 8 9 9 10 10 10 10 9 7 8 8 8 15 18 20 21 22 23 22 22 22 22 22 23 24 26 27 28 29 29 30 30 31 31 32 32 33 33 32 31 30
8 8 9 10 10 10 10 10 10 10 10 10 8 8 10 10 16 19 18 17 19 20 22 24 25 24 23 22 25 25 25 27 28 29 30 31 30 30 32 31 32 31 32 31 31
7 7 8 9 10 10 11 11 12 11 9 11 8 9 9 16 15 15 18 18 20 21 21 22 23 22 23 23 24 24 25 24 27 28 30 30 28 30 31 32 31 32 33 33 29
7 7 8 9 9 10 10 11 13 14 11 11 8 9 11 18 16 17 17 18 20 21 22 23 23 21 21 21 21 22 22 23 25 28 29 28 28 30 31 31 31 31 32 32 32
7 8 8 9 10 10 11 13 16 14 13 11 12 12 14 18 20 21 20 20 21 21 21 20 20 20 20 19 19 22 23 24 25 27 28 28 28 30 30 31 31 31 31 31 31
8 8 8 8 10 10 10 11 14 13 14 15 16 15 17 19 19 21 21 21 21 20 17 19 18 18 20 21 22 24 24 25 26 28 27 27 28 29 30 31 30 30 27 28 27
8 9 9 10 10 13 12 10 16 15 13 16 16 17 18 18 18 19 20 19 19 17 19 18 17 20 22 22 22 22 22 23 26 28 27 27 27 29 29 29 28 28 27 27 28
9 9 8 11 11 13 13 15 15 15 12 14 16 17 17 18 17 18 20 19 18 17 18 17 19 22 22 22 22 22 22 23 24 25 27 26 26 27 29 29 29 29 28 28 30
8 9 8 10 12 12 14 14 14 14 10 14 18 19 18 18 17 20 21 20 19 17 18 18 20 21 21 21 23 21 24 25 25 24 23 26 24 26 27 28 29 29 29 28 29
8 9 9 10 10 11 14 14 14 14 9 13 15 17 19 18 20 20 22 20 19 19 18 18 19 20 20 22 24 22 25 24 25 24 24 25 23 26 26 27 27 29 28 28 28
8 9 9 11 10 13 13 13 13 10 10 12 16 18 18 18 19 20 21 21 21 19 19 19 21 20 20 22 23 24 23 24 24 23 21 24 24 26 26 27 28 28 29 30 29
8 10 10 10 11 13 13 13 10 9 14 15 17 18 18 16 18 19 19 17 16 17 16 18 19 21 22 20 21 22 21 19 19 20 21 25 24 26 26 27 29 28 27 27 23
8 11 12 12 13 13 13 10 10 13 14 17 17 16 15 13 13 14 16 16 19 19 16 16 16 19 22 20 19 20 21 19 18 20 22 25 24 25 29 29 28 30 29 25 24
8 11 12 14 13 13 10 10 9 12 14 15 16 14 14 15 12 13 13 15 18 18 15 14 16 19 19 20 21 20 19 23 21 22 23 24 26 27 29 29 28 29 27 24 23
5 9 13 14 14 13 10 11 13 12 13 12 13 15 13 14 14 11 12 14 12 13 14 15 14 18 19 20 20 20 23 20 21 20 20 24 25 25 27 28 28 27 25 24 24
8 11 14 14 14 10 8 11 14 11 13 12 14 14 14 13 13 14 14 14 12 12 11 13 14 15 17 17 17 19 20 20 21 21 21 21 23 28 28 27 28 26 26 25 24
10 11 15 15 11 10 9 13 14 14 15 15 15 12 14 14 14 14 12 13 14 11 11 12 11 12 15 18 19 18 19 21 19 21 22 22 24 28 31 29 28 26 26 25 24
7 12 15 15 9 9 12 14 14 14 14 14 14 14 11 12 11 12 12 15 13 13 13 12 11 11 15 17 18 18 20 22 21 21 22 23 24 30 29 28 28 26 26 25 25
9 11 12 12 12 11 12 12 13 15 15 15 14 10 10 11 13 13 12 15 14 14 14 11 11 11 11 15 14 14 15 18 22 21 23 24 26 28 28 28 27 26 26 25 25
9 11 11 9 9 11 11 12 13 13 14 14 13 13 12 11 12 12 12 13 14 13 11 10 10 12 13 15 15 13 14 15 16 22 23 25 26 28 26 26 27 26 26 26 25
10 10 10 9 11 11 11 11 11 13 12 12 10 11 11 10 11 10 13 12 12 14 11 9 10 12 12 15 15 14 15 15 15 18 24 26 27 28 27 28 27 27 27 26 26
10 10 9 9 10 10 11 12 12 12 13 13 12 10 11 11 13 12 13 13 13 13 13 12 11 11 12 15 13 14 15 16 17 19 24 25 27 27 25 24 23 26 27 27 26
Height
829 826 824 821 817 814 811 809 806 803 799 796 792 788 786 784 777 776 773 763 766 766 770 769 769 771 770 771 768 765 797 801 787 775 759 735 738 719 715 720 719 719 723 724 722
828 824 821 819 817 814 810 808 803 801 798 796 792 788 784 781 774 766 756 756 760 764 767 767 766 769 771 766 765 773 781 776 762 758 755 741 738 728 728 728 730 723 713 722 722
827 824 821 818 814 810 808 805 803 801 798 796 792 788 784 781 774 751 748 747 753 757 761 762 764 764 766 762 761 761 763 756 754 749 743 743 738 725 730 734 728 732 722 714 721
826 823 820 816 813 810 806 802 800 798 796 793 790 787 784 784 778 747 747 747 747 750 758 759 760 767 767 764 753 764 747 748 747 745 744 742 733 730 725 726 717 714 713 715 717
827 823 819 815 810 807 804 801 798 795 793 791 789 789 785 780 762 747 751 749 750 751 752 754 761 765 769 760 756 749 744 741 736 738 736 733 732 727 721 712 708 707 708 711 709
825 821 817 813 809 804 800 796 793 791 789 787 787 787 788 779 752 746 750 750 749 749 747 750 753 754 759 758 758 744 740 736 732 731 728 733 727 721 715 709 707 705 706 705 703
822 818 814 809 805 801 796 791 787 784 782 781 782 783 779 763 744 741 742 743 743 744 742 743 744 747 746 755 741 742 751 739 728 726 724 724 725 718 710 706 705 704 700 698 695
822 817 812 807 802 796 790 784 778 777 776 775 777 779 768 741 741 741 736 739 739 739 741 741 739 742 745 741 741 746 747 754 725 723 715 731 718 714 705 704 704 699 695 691 689
819 814 810 803 798 793 787 778 771 768 770 772 775 774 759 736 735 730 733 736 736 736 737 739 738 744 746 753 759 747 754 745 729 714 721 729 711 706 700 699 698 692 687 683 679
817 812 807 800 794 789 783 774 765 763 765 769 770 771 747 731 724 725 727 731 730 732 736 738 743 748 747 753 753 747 743 726 723 722 716 722 713 702 694 693 691 684 680 674 673
814 809 803 796 790 786 781 774 767 766 766 764 757 751 732 726 725 725 725 726 727 731 744 740 751 740 717 732 731 726 723 723 715 713 721 715 713 702 686 682 681 679 679 676 672
812 806 800 792 787 782 781 780 773 772 759 742 741 734 732 727 729 723 725 729 729 740 736 743 733 721 726 726 730 732 731 722 714 706 709 708 709 692 682 679 677 676 673 669 665
810 804 798 789 786 782 780 777 773 768 765 732 722 720 718 728 725 724 722 722 729 736 736 738 722 715 720 723 726 722 726 725 727 719 703 710 712 698 678 670 667 663 662 658 653
808 803 798 791 787 783 779 777 773 769 774 742 716 710 711 717 723 709 708 715 722 730 732 727 715 714 713 715 718 724 710 714 720 726 735 711 732 697 686 677 668 662 654 653 645
806 801 796 792 789 785 781 775 773 771 783 750 738 723 713 716 706 703 696 705 716 718 723 716 714 715 715 711 707 708 704 711 713 718 721 714 729 687 681 681 674 657 652 644 638
804 799 795 792 788 783 779 775 774 781 776 758 736 721 717 716 710 703 699 699 700 710 709 709 704 708 708 702 698 700 707 710 711 719 738 704 712 683 687 677 662 652 643 635 630
801 796 794 792 788 784 780 776 784 787 759 747 733 723 720 725 713 708 707 716 720 722 720 712 708 699 699 709 701 703 717 741 743 737 717 695 703 680 665 654 647 648 642 636 633
798 793 790 788 785 783 779 784 788 767 757 738 734 733 735 741 736 728 719 714 706 707 715 719 720 701 692 700 709 704 708 727 742 728 710 692 702 676 636 634 633 629 631 635 636
795 790 787 783 785 783 784 789 791 771 759 747 735 741 741 733 744 741 733 719 709 705 723 726 714 698 698 692 694 700 706 685 710 702 708 692 671 654 634 634 631 627 633 637 640
797 790 783 783 783 782 788 786 770 770 762 758 755 741 744 738 738 752 742 726 734 730 722 719 722 700 695 692 686 687 680 707 702 728 728 691 679 673 638 631 626 626 634 637 640
795 788 780 780 782 787 801 782 766 776 764 758 747 746 744 742 744 736 734 730 734 727 732 730 722 707 701 701 703 692 690 693 691 697 710 714 686 626 627 623 624 625 625 633 639
797 792 779 779 787 788 793 773 765 762 754 747 742 751 742 736 732 732 740 738 731 737 733 734 738 723 706 690 686 690 691 687 705 695 689 690 675 617 607 612 612 623 626 632 636
805 789 776 778 796 793 780 771 765 760 756 749 747 744 752 746 746 737 738 725 734 731 727 734 737 732 701 687 680 685 673 668 678 684 686 689 671 618 612 615 614 623 629 634 639
808 796 784 783 783 784 779 774 765 755 749 747 747 755 757 748 736 733 733 725 728 727 727 737 735 733 730 700 711 707 696 680 672 683 673 661 648 634 622 621 621 624 628 634 641
809 798 798 800 793 786 781 773 764 758 752 748 744 743 744 745 736 732 730 726 723 725 735 739 735 723 712 699 702 708 702 695 694 666 663 649 646 631 624 620 620 621 629 636 644
811 810 803 802 790 784 779 776 767 756 758 751 762 751 743 744 737 737 725 724 724 717 727 736 730 718 712 692 695 697 688 692 688 669 644 639 638 617 609 609 620 621 628 637 644
814 812 810 798 789 785 780 772 765 760 751 749 747 750 742 738 725 722 715 710 712 714 712 718 726 719 700 690 698 697 682 676 670 659 638 645 629 621 627 622 630 625 626 634 641
Wind_Speed
17 17 17 17 18 18 19 18 18 19 20 21 21 21 21 23 26 19 9 20 8 8 14 8 7 15 17 7 10 5 4 5 12 13 16 17 17 14 7 6 4 6 5 8 30
18 18 19 19 19 19 20 19 20 19 19 20 21 21 22 24 27 15 32 32 24 19 15 20 12 17 12 12 8 11 6 11 17 18 15 16 11 19 17 6 6 15 10 27 29
19 19 19 20 21 22 21 20 19 19 19 19 20 22 21 22 8 7 5 11 32 24 27 22 22 15 17 14 11 14 20 15 18 17 19 20 22 16 18 9 8 9 9 16 12
21 21 21 22 22 22 22 22 22 19 19 19 19 20 21 10 6 4 10 11 3 22 24 19 6 4 4 17 16 16 21 21 17 19 23 25 22 21 18 13 9 10 13 5 12
20 21 22 24 25 25 24 23 23 22 22 19 18 16 12 7 10 20 16 7 2 16 17 8 9 4 10 5 13 24 22 19 20 21 24 24 25 24 24 18 13 11 14 11 10
19 21 23 23 24 25 26 27 27 26 24 21 17 13 8 16 16 27 22 17 16 15 19 17 8 12 10 10 17 17 18 22 19 23 23 24 25 21 21 13 16 18 16 15 10
22 23 24 25 25 27 27 29 31 30 27 24 16 12 12 21 22 23 25 27 23 17 10 20 21 14 7 11 18 20 22 20 23 21 20 16 27 31 19 13 17 12 14 14 11
22 23 25 26 27 29 32 35 34 32 27 17 14 9 7 29 25 31 25 26 22 23 23 24 23 10 4 7 12 17 18 21 22 23 23 16 42 15 16 22 22 25 23 19 12
24 25 28 29 30 31 33 36 35 24 17 8 5 8 8 16 13 23 25 16 18 22 23 22 16 9 9 6 7 9 18 22 26 22 16 11 32 15 21 23 22 19 23 23 22
26 29 31 33 32 30 32 32 23 11 7 8 11 7 9 7 11 15 12 14 5 8 8 6 4 11 11 12 17 13 18 22 27 9 12 22 32 28 29 27 26 23 21 18 18
29 31 36 37 32 28 30 18 9 4 4 12 19 14 28 23 36 5 12 13 7 5 6 8 9 22 33 22 16 15 19 22 16 16 17 25 26 26 26 22 18 17 10 8 10
32 34 38 33 29 19 14 4 14 13 15 23 23 27 33 35 23 20 25 15 5 7 8 10 23 22 17 15 19 22 25 24 14 10 14 16 14 19 17 13 9 10 9 9 8
31 35 33 28 20 10 14 21 29 26 9 26 18 23 26 24 23 22 20 16 13 12 12 16 12 16 21 20 22 25 24 18 18 14 22 18 18 19 19 14 11 12 9 10 18
30 33 27 25 5 22 13 25 21 24 4 14 19 6 4 20 22 27 29 18 15 17 15 16 17 20 18 25 19 23 14 20 20 15 14 11 17 19 11 16 19 15 16 15 20
31 31 23 16 13 9 21 26 20 6 4 15 12 16 13 2 9 16 17 12 16 16 11 22 12 11 20 17 18 24 11 19 16 15 16 18 9 7 9 9 10 13 13 13 14
32 29 21 9 10 15 23 22 10 2 3 10 10 9 11 4 12 10 4 9 13 14 13 16 12 18 17 15 18 17 16 19 16 11 12 17 15 20 12 6 13 10 14 15 6
35 25 16 13 6 17 18 9 2 2 6 8 15 18 15 16 15 10 8 10 5 6 10 11 14 17 17 18 18 15 13 7 9 9 16 13 12 17 11 13 18 12 10 3 9
38 15 12 12 10 14 16 3 2 10 16 19 17 13 10 11 14 18 17 7 8 16 10 11 9 9 10 19 10 13 13 8 13 8 17 13 8 9 22 15 11 14 8 12 12
34 13 9 7 3 9 4 2 2 7 18 21 19 7 8 14 3 9 13 12 9 4 2 3 7 11 18 15 14 19 18 18 15 11 8 5 10 22 26 19 11 17 9 13 12
26 9 9 1 5 5 2 4 10 14 16 15 19 5 13 12 11 2 5 13 13 17 14 3 8 10 16 14 14 18 8 6 11 12 12 6 13 9 10 18 10 9 12 14 14
5 3 8 3 3 3 1 4 21 5 19 6 14 12 13 6 9 13 5 6 7 9 11 13 4 13 10 3 11 9 16 11 6 9 9 7 9 12 8 9 10 10 18 16 16
8 3 8 2 1 2 3 15 16 12 16 13 12 6 12 16 8 7 6 7 2 2 1 4 4 6 11 13 17 17 20 15 8 18 5 5 9 11 5 7 7 15 14 15 17
6 4 10 4 1 2 9 13 15 19 11 11 13 15 13 11 7 3 3 4 8 5 0 3 3 5 6 7 12 9 14 17 6 7 20 11 11 4 4 8 17 18 16 16 16
4 4 4 4 5 8 11 10 15 11 11 15 13 6 4 10 13 10 5 6 9 5 3 5 4 5 8 8 9 10 20 13 16 10 13 13 20 13 6 8 15 16 18 17 17
3 4 3 4 8 13 14 15 17 16 13 11 7 11 13 10 16 8 11 8 5 9 5 5 4 10 16 20 11 16 19 20 17 14 17 16 8 9 7 9 16 18 17 18 17
3 3 3 7 11 14 8 7 16 17 13 11 10 17 17 7 10 15 14 9 9 4 9 6 4 9 16 16 2 19 22 20 21 23 14 21 17 4 14 12 13 18 18 18 18
10 7 4 6 8 8 7 17 18 16 8 19 7 12 14 16 17 15 15 12 14 14 9 8 3 4 5 7 3 8 19 17 14 19 19 16 10 7 19 11 10 10 16 18 18
Wind_Direction
358 355 352 350 346 344 342 339 336 333 334 332 332 332 330 328 317 308 240 243 243 271 245 243 244 240 232 225 246 170 204 229 249 251 264 291 305 306 292 159 308 354 122 336 325
355 352 349 346 343 340 338 335 332 329 328 328 327 327 328 331 321 250 270 261 243 237 246 234 251 234 228 220 210 214 224 225 243 266 279 280 283 294 304 359 339 309 12 309 304
354 350 346 341 338 336 333 330 325 322 321 320 320 322 324 336 301 256 347 267 231 224 239 230 236 254 230 230 223 231 241 237 249 263 269 282 292 297 300 305 265 298 190 239 217
355 347 342 339 335 331 328 325 322 318 313 315 316 320 322 323 250 152 33 359 301 219 221 235 247 265 244 236 224 249 238 239 250 250 269 276 281 284 286 281 274 295 298 217 234
348 340 340 338 335 332 328 323 319 316 315 311 308 314 330 236 238 250 291 302 175 199 214 219 234 233 247 259 252 233 245 248 245 244 249 261 269 274 275 285 287 289 296 289 279
346 341 337 333 331 329 327 323 318 314 311 304 300 301 277 260 257 259 277 271 237 220 205 212 212 215 271 253 244 267 264 253 251 244 248 253 261 268 267 272 281 282 280 277 261
348 343 340 338 335 332 327 321 313 309 306 304 296 281 260 252 256 269 275 288 286 291 277 251 237 233 211 240 254 267 274 281 263 259 258 261 268 260 274 271 269 270 277 266 264
343 340 338 335 332 331 327 320 310 305 298 298 293 255 253 269 264 265 274 272 271 269 267 280 291 293 249 300 287 247 257 259 257 260 261 247 265 263 282 275 277 279 270 270 253
343 341 339 333 329 326 325 320 315 310 301 281 259 205 259 289 222 249 241 252 263 266 265 248 254 251 288 262 272 241 240 245 254 241 251 234 265 273 277 270 271 263 261 260 258
342 342 339 332 328 326 325 325 337 314 306 235 242 240 251 246 241 227 205 219 248 219 261 265 262 235 236 224 222 218 228 238 249 247 239 236 251 260 261 262 260 261 254 253 252
342 341 338 332 330 326 329 337 355 26 224 288 281 239 292 284 308 190 205 220 226 246 214 233 219 224 220 221 242 258 239 248 248 237 252 252 260 262 266 264 263 268 254 262 257
343 343 338 334 332 326 323 253 345 305 296 270 261 259 251 270 279 287 293 283 251 235 235 235 232 234 237 233 233 242 257 262 281 255 252 258 261 253 257 260 243 246 264 262 251
344 343 338 337 336 348 320 343 344 346 305 293 259 250 242 247 254 258 251 246 249 255 249 246 252 231 237 229 237 231 239 255 262 283 283 297 290 283 279 280 281 274 250 247 259
343 342 341 342 357 333 342 344 332 343 296 317 356 38 218 231 259 253 242 224 221 234 238 258 261 253 248 230 234 242 240 239 252 257 257 247 271 257 265 263 261 259 254 249 251
341 342 335 340 292 308 352 337 338 344 294 346 334 295 357 356 335 323 208 212 232 221 211 242 271 244 256 256 235 250 245 248 265 245 258 255 260 253 206 250 271 268 265 262 255
338 339 329 336 299 314 349 339 339 63 319 319 312 321 341 306 311 310 230 208 215 227 253 262 254 251 266 269 259 266 252 247 260 262 268 246 229 259 244 234 255 263 265 279 246
334 332 306 301 268 331 334 331 35 12 273 315 346 344 357 357 338 269 256 243 266 249 260 291 277 242 250 269 276 260 229 247 235 232 241 218 252 262 248 227 235 250 266 136 92
334 324 282 255 295 334 323 339 336 336 329 335 341 7 353 30 343 333 330 314 253 228 244 259 267 260 281 230 258 254 228 211 214 203 253 259 256 253 247 248 239 249 216 120 107
334 331 260 279 332 337 27 343 209 296 322 341 331 3 354 357 117 343 334 327 329 60 218 339 264 286 308 298 230 251 249 226 252 283 264 245 243 262 260 259 241 239 154 128 124
329 293 266 244 326 310 35 276 311 344 343 355 322 345 333 342 349 74 277 13 345 22 13 286 286 269 288 310 301 238 251 225 219 232 253 254 253 237 251 230 239 150 136 127 128
322 255 134 183 160 44 39 268 320 11 317 279 308 321 315 347 317 303 316 347 345 332 39 325 286 280 290 253 268 285 235 241 240 210 237 242 266 249 236 177 181 149 142 138 133
322 306 152 233 294 229 306 313 322 325 331 318 346 323 306 315 313 342 335 293 287 302 18 276 295 292 271 273 272 279 282 225 230 222 260 218 260 330 91 146 129 146 130 129 130
312 266 251 222 303 315 299 326 325 324 312 320 332 344 10 328 329 298 250 299 252 232 341 54 303 303 293 241 244 248 275 224 204 250 228 235 249 294 245 120 118 123 126 131 130
292 322 356 345 1 322 321 310 314 313 334 339 324 83 315 308 293 316 240 308 208 276 214 111 248 244 278 296 327 303 320 315 234 232 230 231 244 268 187 117 138 132 134 136 134
247 352 40 315 321 310 320 301 321 329 332 332 305 329 321 319 315 307 315 296 263 225 198 150 253 248 270 284 270 275 285 297 304 266 216 243 219 262 200 126 146 134 135 137 138
336 339 336 291 302 310 353 320 314 330 324 313 354 319 311 287 309 310 301 279 276 247 172 177 254 280 287 267 230 277 281 280 279 276 245 242 251 227 17 121 137 141 142 139 142
349 330 291 270 296 322 317 323 319 331 331 322 327 311 302 305 304 255 279 269 256 263 254 191 231 293 267 137 125 282 257 260 260 273 259 229 226 125 137 75 58 133 136 146 149